This demonstration page uses our WeatherBlox Daily Observations layout. Learn more.

Left ArrowRight Arrow

Hourly Observations for April 9, 2020

Temp ( °F °C ) Dew Point ( °F °C ) Humidity (%) Winds ( mph kmh ) Pressure ( in mb ) Visibility ( mi km ) Precip ( " mm )
12:15 am 00:15 Clear 54 12 48 9 82 82 Calm 29.6 1002 10 16.0934 0 0
12:35 am 00:35 Clear 52 11 48 9 88 88 Calm 29.6 1003 10 16.0934 0 0
12:55 am 00:55 Clear 54 12 48 9 82 82 Calm 29.59 1002 10 16.0934 0 0
1:15 am 01:15 Clear 52 11 46 8 82 82 SW 3 6 29.6 1003 10 16.0934 0 0
1:35 am 01:35 Clear 50 10 46 8 88 88 SSW 3 6 29.59 1002 10 16.0934 0 0
1:55 am 01:55 Clear 48 9 46 8 94 94 W 5 7 29.59 1002 10 16.0934 0 0
2:15 am 02:15 Clear 52 11 45 7 77 77 W 3 6 29.57 1002 10 16.0934 0 0
2:35 am 02:35 Clear 48 9 45 7 87 87 WSW 3 6 29.58 1002 10 16.0934 0 0
2:55 am 02:55 Clear 50 10 46 8 88 88 Calm 29.56 1001 10 16.0934 0 0
3:15 am 03:15 Clear 50 10 46 8 88 88 Calm 29.55 1001 10 16.0934 0 0
3:35 am 03:35 Clear 52 11 46 8 82 82 Calm 29.54 1000 10 16.0934 0 0
3:55 am 03:55 Clear 54 12 46 8 77 77 Calm 29.51 999 10 16.0934 0 0
4:15 am 04:15 Clear 52 11 46 8 82 82 Calm 29.5 999 10 16.0934 0 0
4:35 am 04:35 Partly Cloudy 52 11 46 8 82 82 E 5 7 29.48 998 10 16.0934 0 0
4:55 am 04:55 Partly Cloudy 52 11 48 9 88 88 NNW 5 7 29.49 999 10 16.0934 0 0
5:15 am 05:15 Mostly Cloudy 52 11 48 9 88 88 ENE 6 9 29.5 999 10 16.0934 0 0
5:35 am 05:35 Cloudy with Nearby Thunderstorms 52 11 50 10 94 94 NNW 3 6 29.52 1000 10 16.0934 0 0
5:55 am 05:55 Cloudy 52 11 50 10 94 94 Calm 29.52 1000 5 8.0467 0.06 1.524
6:15 am 06:15 Cloudy 50 10 50 10 100 100 ESE 5 7 29.52 1000 10 16.0934 0.02 0.508
6:35 am 06:35 Cloudy 50 10 50 10 100 100 ENE 5 7 29.49 999 10 16.0934 0.02 0.508
6:55 am 06:55 Partly Cloudy 50 10 50 10 100 100 ENE 5 7 29.47 998 10 16.0934 0.03 0.762
7:15 am 07:15 Sunny 50 10 50 10 100 100 Calm 29.47 998 10 16.0934 0 0
7:35 am 07:35 Sunny 50 10 50 10 100 100 Calm 29.46 997 10 16.0934 0 0
7:55 am 07:55 Sunny 50 10 50 10 100 100 WSW 3 6 29.45 997 7 11.26538 0 0
8:15 am 08:15 Sunny 48 9 48 9 100 100 Calm 29.44 997 7 11.26538 0 0
8:35 am 08:35 Sunny 50 10 50 10 100 100 Calm 29.43 996 10 16.0934 0 0
8:55 am 08:55 Sunny 52 11 52 11 100 100 Calm 29.42 996 10 16.0934 0 0
9:15 am 09:15 Sunny 54 12 52 11 94 94 SSW 3 6 29.4 996 10 16.0934 0 0
9:35 am 09:35 Sunny 55 13 54 12 94 94 Calm 29.38 995 10 16.0934 0 0
9:55 am 09:55 Sunny 55 13 54 12 94 94 SW 6 9 29.37 995 10 16.0934 0 0
10:15 am 10:15 Partly Cloudy 59 15 54 12 82 82 Calm 29.37 995 10 16.0934 0 0
10:35 am 10:35 Partly Cloudy 63 17 55 13 77 77 WSW 5 7 29.37 994 10 16.0934 0 0
10:55 am 10:55 Sunny 64 18 55 13 73 73 WSW 10 17 29.34 994 10 16.0934 0 0
11:15 am 11:15 Mostly Cloudy 66 19 54 12 64 64 WNW 14 22 29.33 993 10 16.0934 0 0
11:35 am 11:35 Cloudy 63 17 55 13 77 77 W 16 26 29.35 994 10 16.0934 0 0
11:55 am 11:55 Mostly Cloudy 64 18 52 11 64 64 W 21 33 29.34 994 10 16.0934 0 0
12:15 pm 12:15 Mostly Cloudy 64 18 46 8 52 52 WNW 31 50 29.34 994 10 16.0934 0 0
12:35 pm 12:35 Mostly Cloudy 63 17 48 9 59 59 NNW 23 37 29.37 994 10 16.0934 0 0
12:55 pm 12:55 Partly Cloudy 64 18 48 9 56 56 NW 32 52 29.35 994 10 16.0934 0 0
1:15 pm 13:15 Sunny 64 18 45 7 49 49 WNW 25 41 29.35 994 10 16.0934 0 0
1:35 pm 13:35 Partly Cloudy 63 17 45 7 52 52 NW 30 48 29.37 994 10 16.0934 0 0
1:55 pm 13:55 Partly Cloudy 63 17 43 6 49 49 NW 31 50 29.39 995 10 16.0934 0 0
2:15 pm 14:15 Partly Cloudy 63 17 41 5 45 45 NW 37 59 29.38 995 10 16.0934 0 0
2:35 pm 14:35 Sunny 63 17 41 5 45 45 WNW 31 50 29.39 995 10 16.0934 0 0
2:55 pm 14:55 Sunny 63 17 37 3 39 39 NW 40 65 29.4 995 10 16.0934 0 0
3:15 pm 15:15 Sunny 59 15 41 5 51 51 NNW 38 61 29.42 996 10 16.0934 0 0
3:35 pm 15:35 Sunny 59 15 39 4 48 48 NW 38 61 29.44 997 10 16.0934 0 0
3:55 pm 15:55 Partly Cloudy 55 13 37 3 51 51 NNW 41 67 29.45 997 10 16.0934 0 0
4:15 pm 16:15 Sunny 54 12 34 1 47 47 NW 39 63 29.44 997 10 16.0934 0 0
4:35 pm 16:35 Sunny 54 12 32 0 44 44 NW 35 56 29.44 997 10 16.0934 0 0
4:55 pm 16:55 Sunny 55 13 32 0 41 41 NW 40 65 29.44 997 10 16.0934 0 0
5:15 pm 17:15 Sunny 55 13 32 0 41 41 NW 26 43 29.46 998 10 16.0934 0 0
5:35 pm 17:35 Sunny 55 13 32 0 41 41 WNW 30 48 29.46 998 10 16.0934 0 0
5:55 pm 17:55 Sunny 54 12 32 0 44 44 WNW 29 46 29.47 998 10 16.0934 0 0
6:15 pm 18:15 Sunny 54 12 32 0 44 44 NW 31 50 29.48 998 10 16.0934 0 0
6:35 pm 18:35 Sunny 54 12 32 0 44 44 NW 28 44 29.49 999 10 16.0934 0 0
6:55 pm 18:55 Sunny 52 11 32 0 47 47 NW 24 39 29.5 999 10 16.0934 0 0
7:15 pm 19:15 Sunny 52 11 32 0 47 47 NW 22 35 29.51 999 10 16.0934 0 0
7:35 pm 19:35 Sunny 50 10 32 0 50 50 NW 23 37 29.52 1000 10 16.0934 0 0
7:55 pm 19:55 Clear 50 10 32 0 50 50 WNW 23 37 29.53 1000 10 16.0934 0 0
8:15 pm 20:15 Clear 48 9 32 0 54 54 NW 17 28 29.53 1000 10 16.0934 0 0
8:35 pm 20:35 Clear 48 9 32 0 54 54 NW 22 35 29.55 1001 10 16.0934 0 0
8:55 pm 20:55 Partly Cloudy 48 9 34 1 58 58 NW 30 48 29.56 1001 10 16.0934 0 0
9:15 pm 21:15 Partly Cloudy 46 8 34 1 62 62 NW 20 31 29.57 1001 10 16.0934 0 0
9:35 pm 21:35 Clear 46 8 34 1 62 62 NW 22 35 29.58 1002 10 16.0934 0 0
9:55 pm 21:55 Clear 46 8 34 1 62 62 NW 18 30 29.6 1002 10 16.0934 0 0
10:15 pm 22:15 Clear 45 7 34 1 66 66 NW 18 30 29.6 1002 10 16.0934 0 0
10:35 pm 22:35 Clear 45 7 34 1 66 66 NW 22 35 29.61 1003 10 16.0934 0 0
10:55 pm 22:55 Partly Cloudy 45 7 34 1 66 66 NW 20 31 29.62 1003 10 16.0934 0 0
11:15 pm 23:15 Partly Cloudy 45 7 32 0 61 61 WNW 23 37 29.61 1003 10 16.0934 0 0
11:35 pm 23:35 Clear 45 7 32 0 61 61 WNW 22 35 29.61 1003 10 16.0934 0 0
11:55 pm 23:55 Clear 45 7 28 -2 53 53 WNW 16 26 29.61 1003 10 16.0934 0 0

Powered by AerisWeather